[Iaude] MPEC F116: 2022 FM3 [a=1.74,e=0.39,i=3.4,H=24.3]

mpec at marsden.cfa.harvard.edu mpec at marsden.cfa.harvard.edu
Mon Mar 28 22:11:51 EDT 2022


M.P.E.C. 2022-F116                               Issued 2022 March 29, 02:10 UT

     The Minor Planet Electronic Circulars contain information on unusual
         minor planets and routine data on comets.  They are published
    on behalf of Division F of the International Astronomical Union by the
          Minor Planet Center, Smithsonian Astrophysical Observatory,
                          Cambridge, MA 02138, U.S.A.

             Prepared using the Tamkin Foundation Computer Network

                              MPC at CFA.HARVARD.EDU
            URL https://www.minorplanetcenter.net/    ISSN 1523-6714

                                    2022 FM3                                    


Observations:
     K22F03M* C2022 03 27.29963210 15 22.474-03 15 27.55         20.93wUEF116F52
     K22F03M  C2022 03 27.31187010 15 22.067-03 16 06.29         20.91wUEF116F52
     K22F03M  C2022 03 27.33630410 15 21.257-03 17 23.55         21.14wUEF116F52
     K22F03M 1C2022 03 27.81656610 15 21.41 -03 43 27.8          20.5 GVEF116246
     K22F03M 1C2022 03 27.82248910 15 21.36 -03 43 46.7                VEF116246
     K22F03M 1C2022 03 27.82328810 15 21.34 -03 43 49.0          20.7 GVEF116246
     K22F03M 1C2022 03 27.82408610 15 21.28 -03 43 52.4                VEF116246
     K22F03M KC2022 03 27.84715510 15 21.64 -03 45 08.0          21.0 GVEF116J95
     K22F03M KC2022 03 27.85447910 15 21.48 -03 45 31.2                VEF116J95
     K22F03M KC2022 03 27.86214210 15 21.34 -03 45 56.2          20.4 GVEF116J95
     K22F03M KC2022 03 27.86944310 15 21.20 -03 46 19.1          20.4 GVEF116J95
     K22F03M KC2022 03 27.88523310 15 20.92 -03 47 05.5          20.3 GXEF116I93
     K22F03M KC2022 03 27.89538210 15 20.64 -03 47 37.7                XEF116I93
     K22F03M KC2022 03 27.90515010 15 20.37 -03 48 09.3          20.6 GXEF116I93
     K22F03M 1C2022 03 27.92613 10 15 19.25 -03 49 23.5          21.0 VXEF116033
     K22F03M 1C2022 03 27.92735 10 15 19.23 -03 49 27.4          20.9 VXEF116033
     K22F03M 1C2022 03 27.92855 10 15 19.20 -03 49 31.3          21.1 VXEF116033
     K22F03M |C2022 03 28.00420 10 15 23.11 -03 51 54.8          21.0 VuEF116807
     K22F03M |C2022 03 28.00969 10 15 22.98 -03 52 12.6          20.8 VuEF116807
     K22F03M |C2022 03 28.01518 10 15 22.87 -03 52 30.4          21.0 VuEF116807
     K22F03M KC2022 03 28.11953910 15 21.33 -03 59 42.4          20.9 VuEF116H21
     K22F03M KC2022 03 28.12512810 15 21.20 -04 00 00.9          20.9 VuEF116H21
     K22F03M KC2022 03 28.13071810 15 21.09 -04 00 19.6          20.9 VuEF116H21
     K22F03M KC2022 03 28.13544 10 15 22.77 -04 00 26.5                oEF116691
     K22F03M KC2022 03 28.14351 10 15 22.59 -04 00 53.0          21.1 RoEF116691
     K22F03M mC2022 03 28.14766910 15 22.37 -04 01 07.2          20.83GVEF116I52
     K22F03M KC2022 03 28.15159 10 15 22.39 -04 01 19.4          20.9 RoEF116691
     K22F03M mC2022 03 28.15843410 15 22.15 -04 01 43.0          20.22GVEF116I52
     K22F03M mC2022 03 28.16610710 15 21.95 -04 02 08.3                VEF116I52
     K22F03M 1C2022 03 28.80108310 15 23.86 -04 37 36.0                VEF116246
     K22F03M 1C2022 03 28.80142510 15 23.72 -04 37 38.1                VEF116246
     K22F03M KC2022 03 28.84022410 15 23.52 -04 39 43.0          20.5 GVEF116104
     K22F03M KC2022 03 28.85056010 15 23.33 -04 40 18.2          20.3 GVEF116104
     K22F03M pC2022 03 28.89091010 15 22.27 -04 42 37.6          21.3 GVEF116L01
     K22F03M pC2022 03 28.89403010 15 22.21 -04 42 47.3          21.4 GVEF116L01
     K22F03M pC2022 03 28.89715110 15 22.14 -04 42 57.2          21.1 GVEF116L01
     K22F03M pC2022 03 28.91250210 15 21.90 -04 43 50.6          21.2 GVEF116L01

Observer details:
033 Karl Schwarzschild Observatory, Tautenburg.  Observers S. Melnikov, C.
    Hoegner, U. Laux, F. Ludwig, B. Stecklum.  Measurer B. Stecklum.  1.34-m
    f/3 Schmidt + CCD.
104 San Marcello Pistoiese.  Observers P. Bacci, M. Maestripieri.  Measurers
    P. Bacci, L. Tesi, G. Fagioli.  0.60-m reflector + CCD.
246 Klet Observatory-KLENOT.  Observers M. Tichy, J. Ticha, M. Honkova.
    Measurer M. Tichy.  1.06-m f/2.7 reflector + 2048x2048 CCD.
691 Steward Observatory, Kitt Peak-Spacewatch.  Observer T. H. Bressi.  0.9-m
    f/3 reflector + CCD.
807 Cerro Tololo Observatory, La Serena.  Observers T. Linder, R. Holmes, L.
    Horn.  0.61-m f/6.5 astrograph + CCD.
F52 Pan-STARRS 2, Haleakala.  Observers J. Bulger, T. Lowe, A. Schultz, I.
    Smith.  Measurers K. Chambers, S. Chastel, T. de Boer, J. Fairlamb, H.
    Gao, M. Huber, C.-C. Lin, E. Magnier, Y. Ramanjooloo, R. Wainscoat, R.
    Weryk.  1.8-m Ritchey-Chretien + CCD.
H21 Astronomical Research Observatory, Westfield.  Observer R. Holmes.
    Measurers T. Linder, R. Holmes, L. Horn.  0.76-m f/3.0 astrograph + CCD.
I52 Steward Observatory, Mt. Lemmon Station.  Observer H. Groeller.  Measurers
    E. J. Christensen, G. A. Farneth, J. B. Fazekas, D. C. Fuls, A. R. Gibbs,
    A. D. Grauer, H. Groeller, J. K. Hogan, R. A. Kowalski, S. M. Larson, G.
    J. Leonard, D. Rankin, R. L. Seaman, A. Serrano, F. C. Shelly, K. W.
    Wierzchos.
I93 St Pardon de Conques.  Observer F. Losse.  0.40-m f/3.7 reflector + CCD.
J95 Great Shefford.  Observer P. Birtwhistle.  0.41-m f/6.3 Schmidt-Cassegrain
    + CCD.
L01 Visnjan Observatory, Tican.  Observers K. Korlevic, I. Lyon.  Measurer K.
    Korlevic.  1.0-m f/2.9 reflector + CCD.

Orbital elements:
2022 FM3                                                 Earth MOID = 0.0671 AU
Epoch 2022 Jan. 21.0 TT = JDT 2459600.5                 Veres                   
M 319.69604              (2000.0)            P               Q                  
n   0.43076419     Peri.  232.77223     -0.83582688     +0.54864460             
a   1.7363729      Node   340.47810     -0.48333587     -0.75229300             
e   0.3937852      Incl.    3.35535     -0.26034566     -0.36475243             
P   2.29           H   24.35          G   0.15           U   8                  
Residuals in seconds of arc
220327 F52  0.1+  0.0     220327 I93  0.8-  0.7+    220328 691  0.2-  0.1-
220327 F52  0.0   0.0     220327 033  0.2-  0.0     220328 I52  0.0   0.5-
220327 F52  0.1+  0.0     220327 033  0.1-  0.0     220328 I52  0.1-  0.5-
220327 246  0.8-  0.7-    220327 033  0.2-  0.0     220328 246  0.1+  0.3-
220327 246  0.3+  0.4-    220328 807  0.2-  0.1-    220328 246  1.9-  1.2-
220327 246  0.3+  0.1-    220328 807  0.2-  0.0     220328 104  0.5+  0.8+
220327 246  0.4-  0.9-    220328 807  0.0   0.2+    220328 104  0.7+  0.6+
220327 J95  0.1-  0.0     220328 H21  0.0   0.5+    220328 L01  0.2-  1.0-
220327 J95  0.5-  0.5+    220328 H21  0.0   0.3+    220328 L01  0.2-  0.2-
220327 J95  0.3-  0.4+    220328 H21  0.5+  0.1-    220328 L01  0.4-  0.5+
220327 J95  0.1-  1.1+    220328 691  0.3-  0.3-    220328 L01  0.4+  1.0-
220327 I93  0.3+  0.1-    220328 691  0.1-  0.3-
220327 I93  0.3-  0.6+    220328 I52  0.7-  0.1-

Ephemeris:
2022 FM3                 a,e,i = 1.74, 0.39, 3                   q = 1.0526
Date    TT    R. A. (2000) Decl.     Delta      r    Elong.  Phase     V
2022 02 27    10 30 52.7 +10 21 57   0.2103  1.2003   177.3     2.2    21.6
...
2022 03 14    10 20 39.2 +05 26 36   0.1498  1.1370   161.4    16.2    21.4
...
2022 03 22    10 16 29.5 +00 52 25   0.1248  1.1090   153.1    23.9    21.2
...
2022 03 28    10 15 20.2 -03 52 15   0.1088  1.0912   147.5    29.5    21.0
2022 03 29    10 15 23.3 -04 47 41   0.1063  1.0885   146.6    30.4    21.0
2022 03 30    10 15 31.5 -05 45 38   0.1039  1.0860   145.7    31.2    20.9
...
2022 04 05    10 18 32.0 -12 31 54   0.09095 1.0724   140.9    36.0    20.8
...
2022 04 13    10 30 55.3 -24 31 43   0.07757 1.0596   135.9    41.2    20.5
...
2022 04 28    11 50 19.4 -53 10 58   0.06903 1.0532   130.9    46.2    20.4

M. P. C. Staff               (C) Copyright 2022 MPC           M.P.E.C. 2022-F116




More information about the Iaude mailing list